This is the latest recevied weather packets stored in our database for station/object KD5UMO-1. If no packets are shown the sender has not sent any weather packets the latest 10 day(s).
| Time | Temp. | Humidity | Pressure | Rain* | Wind** | Luminosity | Snow |
|---|---|---|---|---|---|---|---|
| 1777586816 | 16.67° C | 73% | 1013.8 hPa | 0 mm | - | 109 W/m² | - |
| 1777586512 | 16.67° C | 72% | 1014 hPa | 0 mm | - | 82 W/m² | - |
| 1777586208 | 16.67° C | 73% | 1014.2 hPa | 0 mm | - | 91 W/m² | - |
| 1777585906 | 16.67° C | 73% | 1014.3 hPa | 0 mm | - | 60 W/m² | - |
| 1777585606 | 16.67° C | 74% | 1014.3 hPa | 0 mm | - | 56 W/m² | - |
| 1777585301 | 16.67° C | 75% | 1014.1 hPa | 0 mm | - | 56 W/m² | - |
| 1777584996 | 16.67° C | 74% | 1014.1 hPa | 0 mm | - | 63 W/m² | - |
| 1777584693 | 16.67° C | 75% | 1014.3 hPa | 0 mm | - | 72 W/m² | - |
| 1777584390 | 16.67° C | 74% | 1014.2 hPa | 0 mm | - | 76 W/m² | - |
| 1777584087 | 16.67° C | 74% | 1014.2 hPa | 0 mm | - | 87 W/m² | - |
| 1777583786 | 16.67° C | 74% | 1013.8 hPa | 0 mm | - | 132 W/m² | - |
| 1777583481 | 16.67° C | 74% | 1014.1 hPa | 0 mm | - | 111 W/m² | - |
| 1777583181 | 16.67° C | 74% | 1013.9 hPa | 0 mm | - | 152 W/m² | - |
| 1777582877 | 16.67° C | 74% | 1014 hPa | 0 mm | - | 214 W/m² | - |
| 1777582574 | 16.67° C | 75% | 1013.9 hPa | 0 mm | - | 164 W/m² | - |
| 1777582269 | 16.67° C | 74% | 1013.9 hPa | 0 mm | - | 135 W/m² | - |
| 1777581967 | 16.67° C | 74% | 1013.7 hPa | 0 mm | - | 149 W/m² | - |
| 1777581663 | 16.67° C | 75% | 1013.8 hPa | 0 mm | - | 156 W/m² | - |
| 1777581356 | 16.67° C | 74% | 1013.7 hPa | 0 mm | - | 136 W/m² | - |
| 1777581051 | 16.67° C | 74% | 1013.3 hPa | 0 mm | - | 144 W/m² | - |
| 1777580750 | 16.67° C | 74% | 1013.7 hPa | 0 mm | - | 149 W/m² | - |
| 1777580448 | 16.67° C | 74% | 1014.4 hPa | 0 mm | - | 145 W/m² | - |
| 1777580148 | 16.67° C | 74% | 1014.3 hPa | 0 mm | - | 121 W/m² | - |
| 1777579845 | 16.67° C | 75% | 1014.4 hPa | 0 mm | - | 97 W/m² | - |
| 1777579544 | 16.67° C | 75% | 1015 hPa | 0 mm | - | 74 W/m² | - |
* Rain latest hour (hover to see other rain measurements)
** Current wind speed in m/s (hover to see current wind gust speed)